Commit Graph

  • 869eb96c66 Buttontexte aktualisiert Holger Trampe 2019-12-16 22:57:41 +0100
  • 0b18e82e45 Buttontexte angepasst Holger Trampe 2019-12-16 22:55:06 +0100
  • f15d818cd6 Update Hinweistext hinzugefügt Holger Trampe 2019-12-16 22:51:45 +0100
  • 5383d694ae JETZ! Holger Trampe 2019-12-16 22:50:35 +0100
  • 4fb6ef1d65 Foto check und Link Holger Trampe 2019-12-16 22:47:44 +0100
  • f3f3217659 Foto HTTPS Holger Trampe 2019-12-16 22:45:03 +0100
  • ee353c0675 Modul Quicklinks Holger Trampe 2019-12-16 22:40:24 +0100
  • 4355743512 HTML Emailtemplate bei Passwortmail Holger Trampe 2019-12-16 21:46:14 +0100
  • ae3b4691cf Mailtemplate LINK Holger Trampe 2019-12-16 21:44:11 +0100
  • 5f698336f6 Mailfehler Holger Trampe 2019-12-16 21:40:37 +0100
  • 0335885de1 back to responsive Holger Trampe 2019-12-16 21:35:55 +0100
  • 28280cff66 HACK THE PLANET! Holger Trampe 2019-12-16 21:33:13 +0100
  • b5c8a67eb7 scroll die dritte Holger Trampe 2019-12-16 21:23:53 +0100
  • dc3b4069ef tt Holger Trampe 2019-12-16 21:22:19 +0100
  • b901a749d6 Bug Standard veröffentlichen ja nein kleiner Zahlen Fixed Navbar TRY Holger Trampe 2019-12-16 21:19:58 +0100
  • 11672fb55d Nochmal Holger Trampe 2019-12-16 20:42:00 +0100
  • 67d8e40595 Bug bei Standard-Ansicht gelöst Direktes veröffentlichen bei Standards geht jetzt, wird aber auf false gesetzt, sollte der User nicht über ausreichende Rechte verfügen. Holger Trampe 2019-12-16 20:39:19 +0100
  • 8458b456d9 Bentzer nach ALphabet Supprtfeld Email und Name nicht änderbar Support Imagefile weg Wort AGENTUR im Organigramm weg ALLEN Tabellen sind jetzt Responsive Bei ALLEN Tabellen kann jetzt oben gesucht werden Es gibt bei Standards jetzt eine Zahl, wenn es mehr als 3 gibt Bei Standards werden nur 3 angezeigt Die Cards bei Standards sind alle gleichgroß Holger Trampe 2019-12-16 20:10:59 +0100
  • b9c6c798b4 Wider Sonderzeichenfehler, der Rest nachher Holger Trampe 2019-12-16 18:41:42 +0100
  • 3fd51d8a44 asd Holger Trampe 2019-12-16 18:40:44 +0100
  • 14990bf0e1 asd Holger Trampe 2019-12-16 18:39:47 +0100
  • b9eba6d044 nochmal Holger Trampe 2019-12-16 18:39:10 +0100
  • 9522e9e0ca Umlautfehler EVENTUELL beseitigt ;) Holger Trampe 2019-12-16 18:37:36 +0100
  • 51f8fc707e Ver auf 0.7.1 Holger Trampe 2019-12-16 18:27:45 +0100
  • f9e4720b58 Standardanischt gleich Link Standard zum Aufgabenbereich Zähler mit customtag bei Standards Holger Trampe 2019-12-16 18:24:45 +0100
  • 5fddfc4b7c https und suche Holger Trampe 2019-12-16 16:55:24 +0100
  • 89fa8910de Neuer Editor Und Suche sollte nun laufen - das war eine alte File?!?!? Holger Trampe 2019-12-16 16:52:35 +0100
  • d1f4b868c6 Prod Testausgaben Globale Suche Holger Trampe 2019-12-16 16:23:19 +0100
  • 46283ee2e2 document ready umgangen holger.trampe 2019-12-16 13:47:45 +0100
  • 049cf1f183 Neue globale Suche implementiert holger.trampe 2019-12-16 13:26:43 +0100
  • c94d0a2f0f Dashboard IE11 läuft holger.trampe 2019-12-16 08:55:51 +0100
  • 491c075eb6 Noch zwei drei Rechtschreibfehler bei Namensgebung korrigiert. Gut Nacht! holger.trampe 2019-12-15 23:57:08 +0100
  • e7fdcc8d44 USE TZ False holger.trampe 2019-12-15 23:38:30 +0100
  • db596eb765 uuupppppsssiiiiii holger.trampe 2019-12-15 23:20:13 +0100
  • 9b521a6be9 Der Lachs rennt jetzt wie blöde! holger.trampe 2019-12-15 22:47:32 +0100
  • e7c528458a Richtig tief rein den Pulla! holger.trampe 2019-12-15 22:44:58 +0100
  • c8ff75d11b Migrationsmuschileckereimitaa holger.trampe 2019-12-15 22:09:03 +0100
  • c9ebe2853a Migrateterror holger.trampe 2019-12-15 22:05:40 +0100
  • 184e1b6a54 CKEditor Plugin angelegt, aber nicht eingebunden. Organigramm sichtbar/nicht sichtbar bei User eingestellt Bereichspriorisierung eingestellt und im Main-Organigramm übernommen Rechtschreibfehler bei Mail geklärt Passwort-Reset-Mail Holger Trampe 2019-12-15 18:12:03 +0100
  • 590d207429 CKEditor Plugin angelegt, aber nicht eingebunden. Organigramm sichtbar/nicht sichtbar bei User eingestellt Bereichspriorisierung eingestellt und im Main-Organigramm übernommen Rechtschreibfehler bei Mail geklärt Holger Trampe 2019-12-15 16:50:02 +0100
  • fe235f1a33 requirements holger.trampe 2019-12-13 13:42:40 +0100
  • 88b9685f59 send_mail raus holger.trampe 2019-12-13 11:57:12 +0100
  • 8d1c257bec upsi holger.trampe 2019-12-13 10:08:14 +0100
  • 0efd7e11ea isch hab comitted holger.trampe 2019-12-13 10:07:29 +0100
  • 48e8c3e97a jetze holger.trampe 2019-12-13 10:01:13 +0100
  • a591e34af4 Firstrun angepasst holger.trampe 2019-12-13 09:55:12 +0100
  • b2b257807d Neuer User hat KEIN Parent holger.trampe 2019-12-13 00:01:45 +0100
  • 575ca859a2 MH! holger.trampe 2019-12-12 23:59:42 +0100
  • b551927a83 not none parent user holger.trampe 2019-12-12 23:54:30 +0100
  • 3347862c70 self holger.trampe 2019-12-12 23:52:42 +0100
  • 62151c5f03 vielleicht ja so holger.trampe 2019-12-12 23:50:47 +0100
  • 220827c17d bug holger.trampe 2019-12-12 23:44:13 +0100
  • 675571bccf reg again holger.trampe 2019-12-12 23:41:30 +0100
  • 45fd25ef70 Neue Agency-Bug eventuell behoben holger.trampe 2019-12-12 23:37:03 +0100
  • 21b4c8d38f Last for today holger.trampe 2019-12-12 23:19:44 +0100
  • 4d343993f7 signal neu holger.trampe 2019-12-12 23:15:48 +0100
  • 163675d1ea signal neu holger.trampe 2019-12-12 23:15:10 +0100
  • adbe594279 init und migrations gitignore holger.trampe 2019-12-12 23:06:53 +0100
  • e7a31f4767 Fehler auf der Base bereinigt Upload-Ordner erzeugt und Platzhalter-Readme eingefügt holger.trampe 2019-12-12 22:24:32 +0100
  • a8ffa32f4a vielleicht ja so holger.trampe 2019-12-12 22:16:56 +0100
  • b74dc44127 Last holger.trampe 2019-12-12 22:11:43 +0100
  • d54378ff0d Last holger.trampe 2019-12-12 22:10:39 +0100
  • 21a895f203 kick ma, wa holger.trampe 2019-12-12 22:10:11 +0100
  • 9e28443c5c kick ma, wa holger.trampe 2019-12-12 22:05:40 +0100
  • 0575fd9f72 jetzt media und initial holger.trampe 2019-12-12 22:02:36 +0100
  • e8ea72da8c fotowahnsinn holger.trampe 2019-12-12 21:59:50 +0100
  • 69fae8f7b2 Finale Vers. 0.7.0 holger.trampe 2019-12-12 21:56:46 +0100
  • 3b6d1d422a default.jpg und media-ignore korrigiert holger.trampe 2019-12-12 21:53:19 +0100
  • 5c2e3e5e95 Namensbug bei Foto behoben holger.trampe 2019-12-12 21:47:57 +0100
  • dfbd179238 Fotobug Agenturbild holger.trampe 2019-12-12 21:44:13 +0100
  • 57e47e9234 Fotobug behoben holger.trampe 2019-12-12 21:39:01 +0100
  • ab3f761ca6 AGAIN PLS holger.trampe 2019-12-12 21:22:06 +0100
  • 3f7d5fb993 SO JETZT ABER! P E N I S holger.trampe 2019-12-12 21:19:57 +0100
  • 33c250af0e tralala 2 holger.trampe 2019-12-12 21:18:27 +0100
  • 05b84ebe45 tralala holger.trampe 2019-12-12 21:17:14 +0100
  • 6f2d0adfff ALLES FÜR EINE FEUCHTE VAGINA holger.trampe 2019-12-12 21:13:13 +0100
  • dc7da099d3 Tabellen gleiche Breite holger.trampe 2019-12-12 21:00:16 +0100
  • 5adef8d0af sieht immer noch scheisse aus, ihr lappen holger.trampe 2019-12-12 20:53:47 +0100
  • 47dcf94f51 Dashboard mit Kacheln IHR LAPPEN! holger.trampe 2019-12-12 20:47:51 +0100
  • 9eb57443f9 upsi :) holger.trampe 2019-12-12 20:12:25 +0100
  • 7a8ef1a9eb Orga schick die 2 holger.trampe 2019-12-12 20:10:06 +0100
  • fbb71e556d Organigramm klickbar holger.trampe 2019-12-12 16:15:19 +0100
  • 1073e9d8a9 orga teil 2 holger.trampe 2019-12-12 15:31:59 +0100
  • 5a830cf48e nochmla orga angepasst holger.trampe 2019-12-12 11:20:03 +0100
  • 1dbb3b127e Bild Agentur größer holger.trampe 2019-12-12 11:16:34 +0100
  • eb06b38d0a GitIgnore hinzugefügt um sicherzustellen, dass die Ordner MIGRATIONS nicht mehr überschrieben werden. Damit sollte das anpassen der Datenbank mit makemigrations und migrate ausreichen holger.trampe 2019-12-12 10:56:55 +0100
  • 7629ff151a GitIgnore hinzugefügt um sicherzustellen, dass die Ordner MIGRATIONS nicht mehr überschrieben werden. Damit sollte das anpassen der Datenbank mit makemigrations und migrate ausreichen holger.trampe 2019-12-12 08:22:48 +0100
  • 8b35c69c4e breiter Holger Trampe 2019-12-12 00:38:17 +0100
  • d324897a13 bla Holger Trampe 2019-12-12 00:35:27 +0100
  • 6adf8979cb del Holger Trampe 2019-12-12 00:19:57 +0100
  • bd8a437916 Orga Testversion Holger Trampe 2019-12-12 00:08:30 +0100
  • 1ffeadc768 Userprofile mit Parent hinzugefügt Holger Trampe 2019-12-11 23:22:08 +0100
  • 1b6704991e Bugs eingepflegt oder Karte erstellt inkl. Hinweis in Bugs Holger Trampe 2019-12-11 20:07:29 +0100
  • eac471b504 Löschabläufe gecheckt und fertig implementiert - BITTE CHECKEN! E-Mail-Tempates Registrierung, Passwort vergessen und neue Nutzer drinnen Holger Trampe 2019-12-11 19:25:33 +0100
  • 83ace952be Support Schick holger.trampe 2019-12-11 17:19:44 +0100
  • 215a550656 Ticketzusatz holger.trampe 2019-12-11 17:15:46 +0100
  • b94fb5ec8a JETZE! holger.trampe 2019-12-11 17:10:37 +0100
  • a8353505b6 uzuupppssssiiii holger.trampe 2019-12-11 17:09:55 +0100
  • 4ee7aeb735 upsi2 holger.trampe 2019-12-11 17:09:28 +0100
  • 4aa3ace9b0 Upsi :) holger.trampe 2019-12-11 17:05:36 +0100